Powrót do katalogu

COSMOS 1275 DEB

AktywnyPO
NORAD 42105·DEBRIS·🇷🇺 Russia

Wystrzelony Jun 4, 1981 z Plesetsk Cosmodrome

Loading…

Następne Przeloty (najbliższe 24 godziny)

TLE

ŚwieżeSource: Space-Track

Epoka: Sep 11, 2026, 23:32 UTC

1 42105U 81053PR  26254.98068815  .00000762  00000-0  86160-3 0  9992
2 42105  82.9780 330.7275 0175773 164.6139 316.7844 13.62897996276698

Śledź COSMOS 1275 DEB w czasie rzeczywistym z AllMySat

Download on the App Store